Regional Weather Roundup
Issued by NWS Burlington, VT

Current Version | Previous Version | Text Only | Print | Product List | Glossary On
Versions: 1 2 3 4 5 6 7 8 9 10 11 12 13 14 15 16 17 18 19 20 21 22 23 24 25 26 27 28 29 30 31 32 33 34 35 36 37 38 39 40 41 42 43 44 45 46 47 48 49 50
000 ASUS41 KBTV 271730 RWRBTV VERMONT REGIONAL WEATHER ROUNDUP NATIONAL WEATHER SERVICE BURLINGTON VT 100 PM EDT SAT AUG 27 2016 NOTE: "FAIR" INDICATES FEW OR NO CLOUDS BELOW 12,000 FEET WITH NO SIGNIFICANT WEATHER AND/OR OBSTRUCTIONS TO VISIBILITY. * THESE REPORTS ARE NOT UNDER NWS QUALITY CONTROL AND/OR DO NOT REPORT WEATHER SUCH AS PRECIPITATION AND FOG. VTZ001>019-271800- _____VERMONT_____ CITY SKY/WX TMP DP RH WIND PRES REMARKS BURLINGTON MOSUNNY 81 61 50 NW7 30.21S MONTPELIER SUNNY 75 58 55 W3 30.26F MORRISVILLE SUNNY 80 59 48 N9 30.23S ST. JOHNSBURY* N/A 79 56 45 MISG 30.19F LYNDONVILLE* FAIR 77 57 49 W7 30.25S MIDDLEBURY* FAIR 79 63 57 N3 30.20S RUTLAND* SUNNY 79 64 60 N6 30.20F SPRINGFIELD MOSUNNY 80 62 54 SE5 30.19F HIGHGATE* FAIR 76 60 57 NW3 30.22S NEWPORT* FAIR 75 59 58 N7 30.23S BENNINGTON SUNNY 81 60 48 VRB6 30.20F GALLUP MILLS* N/A 75 N/A N/A MISG N/A UNION VILLAGE* N/A 81 N/A N/A MISG N/A MT. MANSFIELD* N/A 66 N/A N/A NW10 N/A _____LAKE CHAMPLAIN_____ CITY SKY/WX TMP DP RH WIND PRES REMARKS BURTON ISLAND* N/A 77 63 61 NW1 N/A COLCHESTER RF* N/A 72 63 73 N12 N/A DIAMOND ISL* N/A N/A N/A N/A N14 N/A $$ NYZ007-026>031-035-052-083-087-271800- _____NORTHERN NEW YORK_____ CITY SKY/WX TMP DP RH WIND PRES REMARKS PLATTSBURGH SUNNY 75 60 59 NE10 30.21S SARANAC LAKE CLOUDY 75 56 51 NE3 30.23S MASSENA SUNNY 77 59 53 NE9 30.22F OGDENSBURG* PTSUNNY 81 66 61 NE8 30.20S POTSDAM* SUNNY 79 64 61 NE9 30.20F STARK FALLS* N/A N/A N/A N/A S2 N/A WATERTOWN SUNNY 78 59 51 SW8 30.19F FT DRUM MOSUNNY 81 60 48 VRB5 30.19F ALBANY MOSUNNY 81 61 50 CALM 30.19F GLENS FALLS SUNNY 81 62 52 CALM 30.19F $$ NHZ002-005-011-271800- _____NEW HAMPSHIRE_____ CITY SKY/WX TMP DP RH WIND PRES REMARKS LEBANON SUNNY 84 59 42 VRB6 30.19F KEENE SUNNY 82 62 50 VRB3 30.19F MT WASHINGTON PTSUNNY 52 48 87 NW21G30 N/A PLYMOUTH FAIR 82 58 45 NW5 30.18S WHITEFIELD MOSUNNY 79 59 50 VRB5 30.22F $$ _____REGIONAL QUEBEC LOCATIONS_____ CITY SKY/WX TMP DP RH WIND PRES REMARKS MONTREAL MOSUNNY 75 54 46 SW9 30.22S QUEBEC CITY MOSUNNY 73 50 43 SE10 30.22F SHERBROOKE MOSUNNY 73 55 53 W5 30.22F _____REGIONAL ONTARIO LOCATIONS_____ CITY SKY/WX TMP DP RH WIND PRES REMARKS OTTAWA MOSUNNY 77 59 53 E5 30.22F ______KEY______ VSB - VISIBILITY IN MILES WCI - WIND CHILL INDEX HX - HEAT INDEX $$ NNNN

USA.gov is the U.S. government's official web portal to all federal, state and local government web resources and services.